Regional Weather Roundup
Issued by NWS

Home | Current Version | Previous Version | Graphics & Text | Print | Product List | Glossary Off
Versions: 1 2 3 4 5 6 7 8 9 10 11 12 13 14 15 16 17 18 19 20 21 22 23 24 25 26 27 28 29 30 31 32 33 34 35 36 37 38 39 40 41 42 43 44 45 46 47 48 49 50

000
ASUS43 KMKX 260200
RWRWI

WISCONSIN REGIONAL WEATHER ROUNDUP
NATIONAL WEATHER SERVICE MILWAUKEE/SULLIVAN WI
900 PM CDT SUN JUN 25 2017

NOTE: "FAIR" INDICATES FEW OR NO CLOUDS BELOW 12,000 FEET WITH NO
SIGNIFICANT WEATHER AND/OR OBSTRUCTIONS TO VISIBILITY.

WIZ001-002-006>008-014>016-023>028-260300-
NORTHWEST WISCONSIN

CITY           SKY/WX    TMP DP  RH WIND       PRES   REMARKS
SUPERIOR ARPT  NOT AVBL
ASHLAND        CLOUDY    53  46  77 NW8       30.07S
HAYWARD        CLEAR     53  46  77 CALM      30.09S
SIREN          CLEAR     56  43  61 N8        30.11S
CUMBERLAND     PTCLDY    54  46  76 NW3       30.11S
RICE LAKE      PTCLDY    56  46  69 CALM      30.12S
CHETEK         PTCLDY    55  48  75 CALM      30.11S
LADYSMITH      MOCLDY    55  49  82 W6        30.10F
EAU CLAIRE     CLEAR     53  50  89 NW5       30.10S
MENOMONIE      CLEAR     59  46  63 W3        30.11S
NEW RICHMOND   PTCLDY    61  41  48 NW7       30.12R
OSCEOLA        PTCLDY    61  41  48 N8        30.14S
$$

WIZ003>005-009-010-017-018-260300-
NORTH CENTRAL WISCONSIN

CITY           SKY/WX    TMP DP  RH WIND       PRES   REMARKS
MANITOWISH WTR MOCLDY    49  49 100 W6        30.05S
ARBOR VITAE    MOCLDY    52  50  92 NW9       30.04F
WOODRUFF       MOCLDY    52  50  92 NW9       30.04F
RHINELANDER    PTCLDY    51  48  89 NW7       30.06R
EAGLE RIVER    CLOUDY    50  49  96 W8        30.03S
LAND O LAKES   CLOUDY    50  48  93 NW6       30.05R
PHILLIPS       MOCLDY    52  46  82 CALM      30.06S
TOMAHAWK       NOT AVBL
MEDFORD        CLOUDY    52  49  88 W6        30.08R
MERRILL        CLEAR     53  49  86 CALM      30.07S
$$

WIZ029-030-035-036-043>047-260300-
CENTRAL WISCONSIN

CITY           SKY/WX    TMP DP  RH WIND       PRES   REMARKS
WAUSAU         CLEAR     55  47  74 NW7       30.05S
MOSINEE        MOCLDY    54  48  82 NW6       30.07S
MARSHFIELD     CLOUDY    54  46  74 NW8       30.08S
STEVENS POINT  CLEAR     54  51  91 W3        30.07S
WAUPACA        CLOUDY    58  55  90 W8        30.06S
WAUTOMA        PTCLDY    56  54  93 W6        30.08S
WISC RAPIDS    CLOUDY    57  49  74 NW7       30.09S
CAMP DOUGLAS   NOT AVBL
$$

WIZ011>013-019>022-031-037>040-048>050-260300-
NORTHEAST WISCONSIN

CITY           SKY/WX    TMP DP  RH WIND       PRES   REMARKS
ANTIGO         CLOUDY    52  48  86 NW10G16   30.05S
SHAWANO        MOCLDY    58  52  80 W8        30.03F
OCONTO         MOCLDY    57  53  86 W7        30.00F
STURGEON BAY     N/A     58  54  86 SW10        N/A
GREEN BAY      MOCLDY    59  55  87 W7        30.03S
MANITOWOC      NOT AVBL
APPLETON       MOCLDY    57  54  88 W9        30.04S
CLINTONVILLE   CLEAR     55  48  76 NW12      30.04S
OSHKOSH        MOCLDY    57  53  86 VRB5      30.05S
$$

WIZ032>034-041-042-053>061-260300-
SOUTHWEST WISCONSIN

CITY           SKY/WX    TMP DP  RH WIND       PRES   REMARKS
LA CROSSE      CLEAR     67  47  48 W9        30.10S
SPARTA         CLEAR     57  50  78 W3        30.10S
VIROQUA        CLEAR     58  49  70 W6        30.11F
BOSCOBEL       CLEAR     61  51  70 CALM      30.12S
PRAIRIE DU CHI PTCLDY    63  46  54 SW5       30.12S
PLATTEVILLE    CLEAR     61  49  65 W6        30.14R
$$

WIZ056-057-062-063-064-067-068-260300-
SOUTH CENTRAL WISCONSIN

CITY           SKY/WX    TMP DP  RH WIND       PRES   REMARKS
REEDSBURG      MOCLDY    56  54  91 W3        30.10F
BARABOO/DELLS  DRIZZLE   56  54  91 W5        30.10S
LONE ROCK      NOT AVBL
MINERAL POINT  CLEAR     61  52  72 W7        30.12S
MADISON        MOCLDY    55  53  93 N3        30.10S
MIDDLETON      MOCLDY    57  53  87 W3        30.11S
WATERTOWN      NOT AVBL
MONROE         MOCLDY    61  48  63 W7        30.11S
JANESVILLE     MOCLDY    63  48  59 W9        30.10S
$$

WIZ051-052-058>065-066-070>072-260300-
SOUTHEAST WISCONSIN

CITY           SKY/WX    TMP DP  RH WIND       PRES   REMARKS
MILWAUKEE      LGT RAIN  59  55  87 W9        30.07S
WAUKESHA       MOCLDY    55  54  94 W9        30.09F
MILWAUKEE/TIMM CLOUDY    57  50  77 W7        30.08R
RACINE         LGT RAIN  62  48  60 W15G24    30.10R
KENOSHA        CLOUDY    61  50  67 W12G20    30.08S
FOND DU LAC    CLOUDY    59  51  75 W9        30.06S
SHEBOYGAN      MOCLDY    57  55  93 W8        30.04S
WEST BEND      PTCLDY    55  52  88 W9        30.06F
JUNEAU         CLOUDY    56  52  85 W3        30.09S
$$

LSZ147-162-260300-
LAKE SUPERIOR

STATION/POSITION TIME  TEMP    WIND        PRES    WAVE
                       AIR SEA DIR/SP/G            HT/PER
                 (UTC) (F)     (DEG/KT/KT) (MB)    (FT/S)
W MID LAKE BUOY  0050   44 39  310/  8/ 10 1017.5S   0
DEVILS ISLAND    0100   53     290/ 19/ 21 1017.6F
SAXON HARBOR     0140   54     200/  4/  5 1017.3F
$$

LMZ867-665-643>646-260300-
LAKE MICHIGAN

STATION/POSITION TIME  TEMP    WIND        PRES    WAVE
                       AIR SEA DIR/SP/G            HT/PER
                 (UTC) (F)     (DEG/KT/KT) (MB)    (FT/S)
CHAMBERS ISLAND  0130   57     280/  2/  4 1014.9S
S GREEN BAY BUOY 0130   60     270/ 16/ 19 1015.4F
N MID LAKE BUOY  0050   59 57  240/ 10/ 12 1015.9F   2/ 5
NORTHPORT PIER   0140   57     300/  4/  5 1014.9F
KEWAUNEE LAKESHO 0130   58     280/  4/  9 1015.8F
SHEBOYGAN LAKESH 0100   58     300/ 10/ 13 1017.2R
PORT WASHINGTON  0140   61     300/  6/ 11 1018.6R
ATWATER BUOY     0009   64 57  270/ 14/ 16 1017.9R
MILWAUKEE LAKESH 0130   60     270/ 15/ 19   N/A
S MID LAKE BUOY  0050   63 62  300/ 10/ 12 1017.8R   1/ 3
KENOSHA   LAKESH 0100   65     280/ 12/ 18 1018.3
$$

TC  - TEMPERATURE IN CELSIUS
VSB - VISIBILITY IN STATUTE MILES
WCI - WIND CHILL INDEX
HX  - HEAT INDEX




USA.gov is the U.S. government's official web portal to all federal, state and local government web resources and services.